Flag for U.S.A. Weather past 2 weeks in Tulsa, Oklahoma, U.S.A.

Now
62 °F

Mostly cloudy.


Feels Like: 62 °F
Forecast: 63 / 78 °F
Wind: 5 mph from West

Location: Tulsa International Airport

Current Time: May 26, 2015 at 1:01:05 AM

Latest Report: May 25, 2015 at 11:53 PM


Visibility: 10 mi

Pressure: 29.81 "Hg

Humidity: 93%

Dew point: 60 °F

Location of TulsaLocation

Historic Weather in Tulsa — Graph

°F

Tulsa temperature yesterday

Maximum temperature yesterday: 82 °F (at 1:53 PM)
Minimum temperature yesterday: 62 °F (at 1:53 AM)
Average temperature yesterday: 69 °F

Past Weeks' High & Low Weather Summary

 TemperatureHumidityPressure
High85 °F (May 18, 1:53 PM)100% (May 14, 4:53 AM)30.34 "Hg (May 14, 4:53 AM)
Low48 °F (May 11, 6:53 AM)33% (May 12, 1:53 PM)29.66 "Hg (May 16, 9:53 PM)
Average66 °F80%30.02 "Hg
* Reported May 10 11:53 PM — May 25 11:53 PM, Tulsa, Weather by CustomWeather, © 2015

Note: Actual official high and low records may vary slightly from our data, if they occured in-between our weather recording intervals... More about our weather records

Advertising

Tulsa weather history for previous 24 hours

 ConditionsComfort  
Time TempWeatherWind HumidityBarometerVisibility
11:53 PM
Mon, May 25
62 °FMostly cloudy.5 mph93%29.81 "Hg10 mi
10:53 PM62 °FOvercast.7 mph93%29.83 "Hg10 mi
9:53 PM63 °FOvercast.6 mph93%29.78 "Hg10 mi
8:53 PM63 °FMore clouds than sun.8 mph87%29.70 "Hg10 mi
7:53 PM64 °FOvercast.10 mph94%29.75 "Hg10 mi
6:53 PM67 °FLight rain. Overcast.16 mph76%29.85 "Hg9 mi
5:53 PM75 °FThunderstorms. Mostly cloudy.10 mph79%29.80 "Hg10 mi
4:53 PM77 °FOvercast.10 mph71%29.80 "Hg10 mi
3:53 PM80 °FMostly cloudy.12 mph64%29.81 "Hg10 mi
2:53 PM81 °FCloudy.18 mph56%29.84 "Hg10 mi
1:53 PM82 °FBroken clouds.20 mph60%29.87 "Hg10 mi
12:53 PM79 °FCloudy.16 mph69%29.88 "Hg10 mi
11:53 AM76 °FMore clouds than sun.17 mph80%29.88 "Hg10 mi
10:53 AM74 °FMostly cloudy.15 mph85%29.88 "Hg10 mi
10:00 AM72 °FMostly cloudy.13 mph91%29.88 "Hg10 mi
8:53 AM70 °FLow clouds.14 mph93%29.88 "Hg10 mi
7:53 AM68 °FLow clouds.7 mph96%29.88 "Hg10 mi
6:53 AM67 °FLow clouds.8 mph97%29.87 "Hg10 mi
5:53 AM66 °FLow clouds.9 mph96%29.86 "Hg10 mi
5:00 AM64 °FLow clouds.3 mph100%29.87 "Hg10 mi
3:53 AM64 °FFog.6 mph100%29.85 "Hg2 mi
2:53 AM62 °FFog.7 mph100%29.85 "Hg4 mi
1:53 AM62 °FFog.10 mph100%29.85 "Hg2 mi
Weather by CustomWeather, © 2015

See weather overviewHow to use our weather pages